When you browse on this site, cookies collect data to enhance your experience and personalize the content and advertising you see.
Visit our Privacy Policy to learn more. By continuing to use the site, you agree to this use of cookies and data.
  • In Latvia
  • List of Countries
  • For 7 days
  • Water Temperature
  • Weather Map
  • Weather Widgets
  • user-avatar
    Login

    Hourly Weather Yverdon-les-Bains

    Today, 16 October, Wednesday

    Time Temperature Precipitation Wind Pressure Humidity
    00:00 +8°C° 0 mm 3 mps 723 mmHg 92%
    01:00 +8°C° 0 mm 3 mps 723 mmHg 92%
    02:00 +7°C° 0 mm 3 mps 722 mmHg 92%
    03:00 +7°C° 0 mm 2 mps 722 mmHg 92%
    04:00 +7°C° 0 mm 2 mps 722 mmHg 91%
    05:00 +7°C° 0 mm 2 mps 722 mmHg 91%
    06:00 +7°C° 0 mm 2 mps 722 mmHg 90%
    07:00 +9°C° 0 mm 2 mps 722 mmHg 85%
    08:00 +12°C° 0 mm 2 mps 722 mmHg 80%
    09:00 +13°C° 0 mm 2 mps 722 mmHg 75%
    10:00 +15°C° 0 mm 2 mps 721 mmHg 68%
    11:00 +16°C° 0 mm 2 mps 721 mmHg 61%
    12:00 +17°C° 0 mm 2 mps 721 mmHg 54%
    13:00 +17°C° 0 mm 2 mps 721 mmHg 57%
    14:00 +17°C° 0 mm 2 mps 720 mmHg 60%
    15:00 +18°C° 0 mm 1 mps 720 mmHg 64%
    16:00 +15°C° 0 mm 1 mps 720 mmHg 69%
    17:00 +13°C° 0 mm 1 mps 720 mmHg 74%
    18:00 +11°C° 0 mm 1 mps 721 mmHg 79%
    19:00 +11°C° 0 mm 1 mps 721 mmHg 75%
    20:00 +11°C° 0 mm 1 mps 721 mmHg 70%
    21:00 +12°C° 0 mm 2 mps 722 mmHg 66%
    22:00 +12°C° 0 mm 2 mps 722 mmHg 67%
    23:00 +12°C° 0 mm 2 mps 722 mmHg 68%

    Tomorrow, 17 October, Thursday

    Time Temperature Precipitation Wind Pressure Humidity
    00:00 +12°C° 0 mm 2 mps 722 mmHg 69%
    01:00 +12°C° 0.1 mm 2 mps 722 mmHg 71%
    02:00 +12°C° 0.1 mm 2 mps 722 mmHg 72%
    03:00 +12°C° 0.1 mm 2 mps 722 mmHg 74%
    04:00 +12°C° 0 mm 2 mps 722 mmHg 74%
    05:00 +12°C° 0 mm 2 mps 722 mmHg 73%
    06:00 +13°C° 0 mm 2 mps 722 mmHg 73%
    07:00 +13°C° 0 mm 2 mps 722 mmHg 72%
    08:00 +14°C° 0 mm 1 mps 722 mmHg 70%
    09:00 +15°C° 0 mm 1 mps 722 mmHg 69%
    10:00 +16°C° 0 mm 1 mps 722 mmHg 65%
    11:00 +19°C° 0 mm 1 mps 722 mmHg 61%
    12:00 +20°C° 0 mm 1 mps 722 mmHg 56%
    13:00 +20°C° 0 mm 1 mps 722 mmHg 60%
    14:00 +19°C° 0 mm 1 mps 721 mmHg 63%
    15:00 +19°C° 0 mm 1 mps 721 mmHg 66%
    16:00 +18°C° 0.1 mm 1 mps 721 mmHg 72%
    17:00 +16°C° 0.1 mm 1 mps 722 mmHg 78%
    18:00 +13°C° 0.1 mm 0 mps 722 mmHg 85%
    19:00 +14°C° 0.4 mm 1 mps 722 mmHg 87%
    20:00 +14°C° 0.4 mm 1 mps 722 mmHg 90%
    21:00 +14°C° 0.4 mm 1 mps 723 mmHg 93%
    22:00 +14°C° 0 mm 1 mps 722 mmHg 93%
    23:00 +13°C° 0 mm 1 mps 722 mmHg 93%

    Day after tomorrow, 18 October, Friday

    Time Temperature Precipitation Wind Pressure Humidity
    00:00 +13°C° 0 mm 1 mps 722 mmHg 94%
    01:00 +13°C° 0.1 mm 1 mps 722 mmHg 94%
    02:00 +13°C° 0.1 mm 2 mps 722 mmHg 94%
    03:00 +14°C° 0.1 mm 2 mps 722 mmHg 94%
    04:00 +13°C° 0.3 mm 2 mps 722 mmHg 95%
    05:00 +13°C° 0.3 mm 2 mps 722 mmHg 95%
    06:00 +13°C° 0.3 mm 2 mps 721 mmHg 96%
    07:00 +13°C° 0.3 mm 2 mps 722 mmHg 95%
    08:00 +14°C° 0.3 mm 2 mps 722 mmHg 93%
    09:00 +14°C° 0.3 mm 2 mps 722 mmHg 92%
    10:00 +15°C° 0.1 mm 2 mps 722 mmHg 88%
    11:00 +16°C° 0.1 mm 3 mps 722 mmHg 84%
    12:00 +17°C° 0.1 mm 3 mps 722 mmHg 79%
    13:00 +17°C° 0.3 mm 3 mps 722 mmHg 80%
    14:00 +17°C° 0.3 mm 2 mps 721 mmHg 81%
    15:00 +17°C° 0.3 mm 2 mps 721 mmHg 82%
    16:00 +16°C° 0.2 mm 2 mps 721 mmHg 85%
    17:00 +15°C° 0.2 mm 2 mps 720 mmHg 87%
    18:00 +14°C° 0.2 mm 1 mps 720 mmHg 89%
    19:00 +14°C° 0.4 mm 1 mps 720 mmHg 90%
    20:00 +14°C° 0.4 mm 1 mps 720 mmHg 91%
    21:00 +14°C° 0.4 mm 1 mps 720 mmHg 91%
    22:00 +13°C° 1 mm 1 mps 720 mmHg 93%
    23:00 +13°C° 1 mm 1 mps 719 mmHg 94%

    19 October, Saturday

    Time Temperature Precipitation Wind Pressure Humidity
    00:00 +13°C° 1 mm 1 mps 719 mmHg 95%
    01:00 +13°C° 0.4 mm 1 mps 719 mmHg 95%
    02:00 +13°C° 0.4 mm 1 mps 719 mmHg 95%
    03:00 +13°C° 0.4 mm 1 mps 718 mmHg 95%
    04:00 +13°C° 0.7 mm 1 mps 718 mmHg 95%
    05:00 +12°C° 0.7 mm 0 mps 718 mmHg 95%
    06:00 +12°C° 0.7 mm 0 mps 718 mmHg 95%
    07:00 +13°C° 0.3 mm 1 mps 718 mmHg 94%
    08:00 +14°C° 0.3 mm 1 mps 718 mmHg 92%
    09:00 +15°C° 0.3 mm 1 mps 718 mmHg 91%
    10:00 +15°C° 0.2 mm 1 mps 717 mmHg 89%
    11:00 +15°C° 0.2 mm 1 mps 717 mmHg 87%
    12:00 +16°C° 0.2 mm 1 mps 717 mmHg 85%
    13:00 +15°C° 0.9 mm 1 mps 716 mmHg 89%
    14:00 +15°C° 0.9 mm 1 mps 716 mmHg 92%
    15:00 +14°C° 0.9 mm 1 mps 716 mmHg 95%
    16:00 +13°C° 4.6 mm 1 mps 716 mmHg 95%
    17:00 +12°C° 4.6 mm 2 mps 717 mmHg 95%
    18:00 +10°C° 4.6 mm 3 mps 717 mmHg 96%
    19:00 +10°C° 2.1 mm 2 mps 718 mmHg 96%
    20:00 +10°C° 2.1 mm 2 mps 718 mmHg 96%
    21:00 +10°C° 2.1 mm 2 mps 719 mmHg 96%
    22:00 +10°C° 0.9 mm 2 mps 719 mmHg 96%
    23:00 +11°C° 0.9 mm 1 mps 718 mmHg 96%

    20 October, Sunday

    Time Temperature Precipitation Wind Pressure Humidity
    00:00 +11°C° 0.9 mm 1 mps 718 mmHg 96%
    01:00 +11°C° 0.4 mm 1 mps 718 mmHg 96%
    02:00 +10°C° 0.4 mm 0 mps 718 mmHg 96%
    03:00 +10°C° 0.4 mm 0 mps 718 mmHg 96%
    04:00 +10°C° 0.3 mm 0 mps 718 mmHg 96%
    05:00 +11°C° 0.3 mm 1 mps 719 mmHg 96%
    06:00 +11°C° 0.3 mm 1 mps 719 mmHg 97%
    07:00 +11°C° 0.1 mm 1 mps 719 mmHg 96%
    08:00 +12°C° 0.1 mm 1 mps 719 mmHg 95%
    09:00 +13°C° 0.1 mm 1 mps 719 mmHg 94%
    10:00 +13°C° 0.5 mm 2 mps 719 mmHg 93%
    11:00 +14°C° 0.5 mm 2 mps 719 mmHg 91%
    12:00 +14°C° 0.5 mm 2 mps 719 mmHg 90%
    13:00 +14°C° 0.5 mm 2 mps 719 mmHg 91%
    14:00 +14°C° 0.5 mm 2 mps 719 mmHg 92%
    15:00 +14°C° 0.5 mm 2 mps 719 mmHg 94%
    16:00 +14°C° 1.2 mm 2 mps 719 mmHg 95%
    17:00 +13°C° 1.2 mm 2 mps 719 mmHg 96%
    18:00 +13°C° 1.2 mm 2 mps 719 mmHg 97%
    19:00 +13°C° 0.7 mm 2 mps 719 mmHg 96%
    20:00 +13°C° 0.7 mm 1 mps 719 mmHg 96%
    21:00 +13°C° 0.7 mm 1 mps 720 mmHg 96%
    22:00 +13°C° 0 mm 1 mps 719 mmHg 96%
    23:00 +12°C° 0 mm 1 mps 719 mmHg 95%

    21 October, Monday

    Time Temperature Precipitation Wind Pressure Humidity
    00:00 +12°C° 0 mm 1 mps 719 mmHg 95%
    01:00 +12°C° 0 mm 1 mps 719 mmHg 95%
    02:00 +12°C° 0 mm 1 mps 719 mmHg 95%
    03:00 +11°C° 0 mm 1 mps 719 mmHg 95%
    04:00 +12°C° 0.2 mm 1 mps 719 mmHg 96%
    05:00 +12°C° 0.2 mm 1 mps 719 mmHg 96%
    06:00 +12°C° 0.2 mm 1 mps 720 mmHg 97%
    07:00 +12°C° 0.7 mm 1 mps 720 mmHg 97%
    08:00 +12°C° 0.7 mm 1 mps 720 mmHg 97%
    09:00 +13°C° 0.7 mm 1 mps 720 mmHg 97%
    10:00 +13°C° 0.2 mm 2 mps 720 mmHg 96%
    11:00 +14°C° 0.2 mm 2 mps 720 mmHg 95%
    12:00 +14°C° 0.2 mm 2 mps 720 mmHg 94%
    13:00 +15°C° 0 mm 2 mps 720 mmHg 93%
    14:00 +15°C° 0 mm 2 mps 719 mmHg 92%
    15:00 +15°C° 0 mm 2 mps 719 mmHg 92%
    16:00 +15°C° 0 mm 2 mps 719 mmHg 93%
    17:00 +14°C° 0 mm 2 mps 719 mmHg 94%
    18:00 +14°C° 0 mm 2 mps 720 mmHg 95%
    19:00 +13°C° 0.1 mm 1 mps 720 mmHg 95%
    20:00 +13°C° 0.1 mm 1 mps 720 mmHg 95%
    21:00 +13°C° 0.1 mm 1 mps 720 mmHg 96%
    22:00 +13°C° 0.5 mm 1 mps 720 mmHg 96%
    23:00 +13°C° 0.5 mm 1 mps 720 mmHg 97%
    Show more